Total_Precipitation_Accumulation
0.49 0.45 0.44 0.42 0.41 0.39 0.39 0.43 0.51 0.49 0.39 0.29 0.26 0.29 0.36 0.40 0.44 0.41 0.36 0.26 0.21 0.19 0.19 0.22 0.25 0.29 0.34 0.37 0.39 0.38 0.35 0.35 0.39 0.49 0.63 0.76 0.86 0.94
0.42 0.38 0.36 0.34 0.36 0.38 0.39 0.39 0.44 0.51 0.49 0.35 0.28 0.29 0.35 0.37 0.44 0.41 0.36 0.33 0.26 0.22 0.22 0.35 0.43 0.43 0.45 0.44 0.43 0.44 0.45 0.45 0.44 0.48 0.57 0.68 0.81 0.94
0.36 0.32 0.30 0.30 0.33 0.34 0.38 0.43 0.47 0.53 0.56 0.39 0.29 0.30 0.37 0.42 0.46 0.44 0.39 0.36 0.30 0.28 0.25 0.34 0.60 0.79 0.72 0.62 0.54 0.50 0.48 0.50 0.50 0.53 0.60 0.68 0.74 0.82
0.30 0.30 0.26 0.23 0.25 0.28 0.33 0.36 0.39 0.45 0.53 0.45 0.31 0.31 0.37 0.46 0.55 0.55 0.47 0.41 0.38 0.40 0.36 0.36 0.53 0.94 1.05 0.82 0.72 0.62 0.53 0.51 0.51 0.55 0.61 0.65 0.67 0.73
0.23 0.24 0.25 0.26 0.27 0.30 0.34 0.36 0.38 0.39 0.50 0.57 0.46 0.40 0.42 0.51 0.64 0.62 0.51 0.52 0.40 0.37 0.39 0.42 0.56 1.09 1.45 1.23 0.95 0.84 0.67 0.58 0.52 0.54 0.60 0.63 0.60 0.58
0.16 0.18 0.21 0.25 0.30 0.33 0.34 0.37 0.43 0.48 0.49 0.54 0.50 0.47 0.50 0.56 0.70 0.76 0.62 0.53 0.43 0.31 0.37 0.45 0.61 1.07 1.63 1.82 1.46 1.19 0.96 0.76 0.64 0.56 0.54 0.53 0.48 0.43
0.13 0.15 0.16 0.20 0.26 0.30 0.32 0.40 0.51 0.58 0.55 0.56 0.55 0.55 0.59 0.69 0.74 0.74 0.68 0.55 0.39 0.33 0.38 0.44 0.69 1.35 1.90 2.20 2.06 1.55 1.14 0.91 0.74 0.62 0.56 0.50 0.44 0.38
0.19 0.17 0.12 0.12 0.15 0.20 0.27 0.35 0.44 0.54 0.60 0.67 0.67 0.64 0.62 0.69 0.72 0.74 0.73 0.68 0.53 0.37 0.40 0.48 0.83 1.63 2.21 2.48 2.38 1.73 1.18 0.96 0.84 0.75 0.68 0.60 0.52 0.44
0.21 0.19 0.14 0.10 0.15 0.21 0.23 0.25 0.33 0.45 0.61 0.75 0.78 0.66 0.68 0.76 0.83 0.83 0.73 0.72 0.69 0.49 0.50 0.64 1.01 1.61 2.15 2.59 2.50 1.85 1.35 1.09 0.98 0.89 0.81 0.71 0.59 0.48
0.17 0.17 0.21 0.23 0.19 0.17 0.19 0.30 0.46 0.57 0.61 0.62 0.73 0.73 0.75 0.74 0.71 0.70 0.67 0.72 0.66 0.51 0.56 0.77 1.05 1.53 1.96 2.41 2.41 1.84 1.41 1.18 1.07 0.95 0.83 0.72 0.61 0.52
0.13 0.13 0.16 0.22 0.17 0.21 0.32 0.51 0.71 0.88 0.77 0.71 0.74 0.85 0.88 0.76 0.60 0.58 0.75 0.84 0.69 0.48 0.51 0.72 0.97 1.25 1.61 1.97 2.01 1.74 1.42 1.23 1.08 0.94 0.80 0.68 0.60 0.56
0.15 0.18 0.18 0.20 0.21 0.32 0.43 0.66 0.88 1.00 0.87 0.80 0.90 1.03 0.98 0.89 0.80 0.79 0.88 0.84 0.72 0.63 0.55 0.68 0.83 0.98 1.37 1.58 1.51 1.38 1.34 1.31 1.17 1.04 0.88 0.70 0.55 0.51
0.20 0.27 0.29 0.28 0.27 0.39 0.56 0.75 0.99 1.02 0.92 0.86 0.85 0.87 0.86 0.87 0.82 0.82 0.79 0.73 0.69 0.68 0.61 0.70 0.84 0.95 1.15 1.34 1.35 1.30 1.18 1.18 1.18 1.22 1.16 0.91 0.64 0.52
0.30 0.35 0.35 0.33 0.35 0.53 0.68 0.87 1.11 1.21 1.03 0.86 0.73 0.67 0.66 0.69 0.69 0.61 0.56 0.54 0.57 0.60 0.59 0.66 0.87 1.02 1.02 1.02 1.21 1.22 1.18 1.20 1.18 1.20 1.24 1.11 0.90 0.77
0.29 0.41 0.41 0.38 0.55 0.85 1.00 1.11 1.28 1.32 1.09 0.82 0.69 0.62 0.56 0.53 0.53 0.52 0.49 0.45 0.44 0.44 0.43 0.52 0.73 0.89 0.91 0.91 1.03 1.07 1.19 1.40 1.34 1.31 1.24 1.13 1.02 0.88
0.25 0.40 0.53 0.58 0.76 1.04 1.23 1.33 1.38 1.28 1.02 0.82 0.69 0.61 0.53 0.49 0.50 0.47 0.45 0.42 0.43 0.50 0.48 0.49 0.60 0.72 0.83 0.83 0.88 0.98 1.10 1.52 1.58 1.37 1.25 1.22 1.12 0.99
0.23 0.38 0.56 0.67 0.86 1.07 1.19 1.22 1.17 1.09 0.98 0.81 0.68 0.61 0.57 0.53 0.51 0.47 0.44 0.39 0.42 0.49 0.51 0.53 0.58 0.61 0.66 0.70 0.82 0.95 1.10 1.34 1.42 1.21 1.05 1.17 1.23 1.09
0.29 0.47 0.63 0.74 0.89 1.01 1.07 1.05 0.98 0.90 0.81 0.72 0.66 0.60 0.57 0.53 0.51 0.44 0.39 0.38 0.42 0.43 0.43 0.43 0.40 0.40 0.48 0.65 0.87 0.94 0.97 1.13 1.16 0.99 0.80 0.88 1.15 1.14
0.35 0.54 0.69 0.81 0.92 0.95 0.96 0.92 0.87 0.81 0.71 0.63 0.59 0.55 0.50 0.46 0.44 0.39 0.34 0.35 0.36 0.34 0.32 0.29 0.25 0.20 0.30 0.66 0.95 1.01 0.91 0.90 0.88 0.83 0.75 0.74 0.96 1.10
0.40 0.55 0.67 0.74 0.81 0.85 0.82 0.81 0.77 0.69 0.61 0.56 0.56 0.52 0.45 0.40 0.36 0.34 0.31 0.27 0.26 0.24 0.22 0.21 0.20 0.20 0.26 0.49 0.88 1.08 0.93 0.70 0.60 0.62 0.66 0.70 0.83 0.91
0.42 0.51 0.59 0.63 0.67 0.70 0.68 0.65 0.63 0.59 0.52 0.47 0.47 0.48 0.45 0.39 0.33 0.26 0.22 0.17 0.18 0.19 0.21 0.25 0.25 0.19 0.17 0.23 0.50 0.77 0.81 0.74 0.56 0.47 0.46 0.50 0.53 0.49
0.40 0.47 0.50 0.50 0.50 0.52 0.49 0.45 0.45 0.45 0.42 0.41 0.41 0.40 0.38 0.32 0.26 0.21 0.18 0.15 0.15 0.14 0.15 0.18 0.16 0.13 0.13 0.18 0.34 0.52 0.58 0.52 0.46 0.42 0.41 0.36 0.31 0.39
0.35 0.38 0.40 0.41 0.37 0.34 0.34 0.33 0.34 0.35 0.35 0.36 0.35 0.34 0.31 0.26 0.20 0.15 0.12 0.10 0.09 0.08 0.09 0.11 0.11 0.09 0.10 0.13 0.19 0.27 0.30 0.28 0.25 0.28 0.40 0.46 0.42 0.49